K5TWC Weather Reports


time (UTC)temp
C
wind
direction
speed
KPH
gust
KPH
rain 1hr
cm
rain 24hr
cm
rain mn
cm
humidity
%
barometer
mb
20260906114011 25 207 0.0 1.6 0.00 0.00 0.00 91 1014.3
20260906113502 25 207 0.0 0.0 0.00 0.00 0.00 91 1014.3
20260906113012 25 207 0.0 0.0 0.00 0.00 0.00 91 1014.2
20260906112506 25 207 0.0 0.0 0.00 0.00 0.00 91 1014.2
20260906112006 25 207 0.0 0.0 0.00 0.00 0.00 91 1014.1
20260906111523 25 207 0.0 0.0 0.00 0.00 0.00 90 1014.1
20260906111008 25 207 0.0 0.0 0.00 0.00 0.00 90 1014.1
20260906110510 25 207 0.0 0.0 0.00 0.00 0.00 90 1014.0
20260906110020 25 207 0.0 0.0 0.00 0.00 0.00 90 1014.0
20260906105511 25 207 0.0 0.0 0.00 0.00 0.00 90 1014.0
20260906105013 25 207 0.0 0.0 0.00 0.00 0.00 90 1013.9
20260906104525 25 207 0.0 0.0 0.00 0.00 0.00 89 1013.9
20260906104013 25 207 0.0 0.0 0.00 0.00 0.00 90 1014.0
20260906103514 25 207 0.0 0.0 0.00 0.00 0.00 90 1013.9
20260906103029 25 207 0.0 0.0 0.00 0.00 0.00 89 1013.9
20260906102514 25 207 0.0 0.0 0.00 0.00 0.00 89 1013.8
20260906102006 25 207 0.0 0.0 0.00 0.00 0.00 89 1013.8
20260906101512 25 207 0.0 0.0 0.00 0.00 0.00 88 1013.6
20260906101010 25 207 0.0 0.0 0.00 0.00 0.00 88 1013.6
20260906100511 25 207 0.0 0.0 0.00 0.00 0.00 88 1013.7
20260906100018 26 207 0.0 0.0 0.00 0.00 0.00 88 1013.6
20260906095510 26 207 0.0 0.0 0.00 0.00 0.00 88 1013.6
20260906095011 26 207 0.0 0.0 0.00 0.00 0.00 88 1013.5
20260906094524 26 207 0.0 1.6 0.00 0.00 0.00 88 1013.4
20260906094010 26 207 0.0 3.2 0.00 0.00 0.00 88 1013.3
20260906093512 26 207 0.0 3.2 0.00 0.00 0.00 88 1013.3
20260906093028 26 207 0.0 3.2 0.00 0.00 0.00 88 1013.2
20260906092515 26 207 0.0 4.8 0.00 0.00 0.00 88 1013.1
20260906092016 26 207 0.0 4.8 0.00 0.00 0.00 88 1013.1
20260906091534 26 207 0.0 0.0 0.00 0.00 0.00 88 1013.1
20260906091016 26 207 0.0 0.0 0.00 0.00 0.00 87 1013.1
20260906090505 26 207 0.0 0.0 0.00 0.00 0.00 87 1013.2
20260906090017 26 207 0.0 0.0 0.00 0.00 0.00 87 1013.2
20260906085508 26 207 0.0 0.0 0.00 0.00 0.00 87 1013.1
20260906085008 26 207 0.0 3.2 0.00 0.00 0.00 87 1013.0
20260906084524 26 207 0.0 4.8 0.00 0.00 0.00 87 1012.9
20260906084011 26 207 0.0 4.8 0.00 0.00 0.00 87 1012.9
20260906083511 26 207 0.0 1.6 0.00 0.00 0.00 86 1012.9
20260906083029 26 207 0.0 3.2 0.00 0.00 0.00 86 1013.0
20260906082514 26 207 0.0 3.2 0.00 0.00 0.00 86 1013.0
20260906082016 26 207 0.0 1.6 0.00 0.00 0.00 86 1013.1
20260906081537 26 207 0.0 1.6 0.00 0.00 0.00 86 1013.1
20260906081014 26 207 0.0 0.0 0.00 0.00 0.00 86 1013.2
20260906080519 26 207 0.0 0.0 0.00 0.00 0.00 85 1013.2
20260906080033 26 207 0.0 0.0 0.00 0.00 0.00 85 1013.3
20260906075519 26 207 0.0 0.0 0.00 0.00 0.00 85 1013.3
20260906075009 26 207 0.0 0.0 0.00 0.00 0.00 85 1013.2
20260906074517 26 207 0.0 1.6 0.00 0.00 0.00 85 1013.3
20260906074019 26 207 0.0 1.6 0.00 0.00 0.00 84 1013.4
20260906073512 26 207 0.0 1.6 0.00 0.00 0.00 84 1013.3
20260906073024 26 205 0.0 1.6 0.00 0.00 0.00 84 1013.3
20260906072503 27 205 0.0 1.6 0.00 0.00 0.00 84 1013.3
20260906072002 27 205 0.0 1.6 0.00 0.00 0.00 83 1013.3
20260906071504 27 205 0.0 0.0 0.00 0.00 0.00 83 1013.3
20260906071004 27 205 0.0 0.0 0.00 0.00 0.00 83 1013.3
20260906070504 27 205 0.0 0.0 0.00 0.00 0.00 82 1013.3
20260906070008 27 205 0.0 1.6 0.00 0.00 0.00 82 1013.3
20260906065505 27 205 0.0 1.6 0.00 0.00 0.00 82 1013.2
20260906065006 27 205 0.0 1.6 0.00 0.00 0.00 82 1013.3
20260906064523 27 205 0.0 1.6 0.00 0.00 0.00 81 1013.3
20260906064008 27 205 0.0 4.8 0.00 0.00 0.00 81 1013.2
20260906063509 27 206 0.0 4.8 0.00 0.00 0.00 81 1013.2
20260906063020 27 205 0.0 4.8 0.00 0.00 0.00 80 1013.2
20260906062509 27 201 0.0 4.8 0.00 0.00 0.00 80 1013.4
20260906062003 27 196 0.0 6.4 0.00 0.00 0.00 80 1013.3
20260906061504 27 174 0.0 6.4 0.00 0.00 0.00 79 1013.4
20260906061002 27 198 0.0 4.8 0.00 0.00 0.00 79 1013.6
20260906060504 27 199 0.0 4.8 0.00 0.00 0.00 79 1013.6
20260906060010 27 200 0.0 4.8 0.00 0.00 0.00 78 1013.6
20260906055503 27 201 0.0 4.8 0.00 0.00 0.00 78 1013.7
20260906055006 27 200 0.0 4.8 0.00 0.00 0.00 78 1013.7
20260906054512 28 197 0.0 6.4 0.00 0.00 0.00 77 1013.7
20260906054003 28 190 0.0 9.7 0.00 0.00 0.00 77 1013.7
20260906053508 28 185 0.0 9.7 0.00 0.00 0.00 77 1013.7
20260906053017 28 200 0.0 6.4 0.00 0.00 0.00 76 1013.6
20260906052506 28 200 0.0 6.4 0.00 0.00 0.00 76 1013.7
20260906052010 28 217 0.0 3.2 0.00 0.00 0.00 76 1013.5
20260906051522 28 218 0.0 4.8 0.00 0.00 0.00 76 1013.5
20260906051012 28 238 0.0 4.8 0.00 0.00 0.00 76 1013.5
20260906050502 28 157 0.0 6.4 0.00 0.00 0.00 76 1013.5
20260906050012 28 192 0.0 6.4 0.00 0.00 0.00 76 1013.6
20260906045507 28 234 0.0 1.6 0.00 0.00 0.00 76 1013.4
20260906045005 28 236 0.0 1.6 0.00 0.00 0.00 76 1013.3
20260906044507 28 236 0.0 3.2 0.00 0.00 0.00 76 1013.2
20260906044007 28 236 0.0 3.2 0.00 0.00 0.00 76 1013.2
20260906043509 28 219 0.0 1.6 0.00 0.00 0.00 75 1013.3
20260906043015 28 217 0.0 1.6 0.00 0.00 0.00 76 1013.3
20260906042503 28 217 0.0 1.6 0.00 0.00 0.00 75 1013.5
20260906042008 28 217 0.0 3.2 0.00 0.00 0.00 75 1013.5
20260906041526 28 217 0.0 3.2 0.00 0.00 0.00 75 1013.5
20260906041007 28 217 0.0 3.2 0.00 0.00 0.00 75 1013.7
20260906040511 28 220 0.0 3.2 0.00 0.00 0.00 74 1013.7
20260906040034 29 221 0.0 3.2 0.00 0.00 0.00 75 1013.7
20260906035515 29 222 0.0 4.8 0.00 0.00 0.00 74 1013.6
20260906035002 29 225 0.0 4.8 0.00 0.00 0.00 74 1013.6
20260906034504 29 232 0.0 4.8 0.00 0.00 0.00 74 1013.5
20260906034003 29 207 0.0 4.8 0.00 0.00 0.00 74 1013.5
20260906033503 29 183 0.0 4.8 0.00 0.00 0.00 74 1013.5
20260906033009 29 209 0.0 4.8 0.00 0.00 0.00 73 1013.4
20260906032503 29 211 0.0 1.6 0.00 0.00 0.00 73 1013.5
20260906032004 29 211 0.0 1.6 0.00 0.00 0.00 73 1013.5
20260906031528 29 211 0.0 6.4 0.00 0.00 0.00 73 1013.5
20260906031008 29 211 0.0 6.4 0.00 0.00 0.00 72 1013.4
20260906030511 30 211 0.0 3.2 0.00 0.00 0.00 72 1013.4
20260906030020 30 217 0.0 4.8 0.00 0.00 0.00 72 1013.4
20260906025514 30 217 0.0 4.8 0.00 0.00 0.00 72 1013.3
20260906025014 30 194 0.0 4.8 0.00 0.00 0.00 72 1013.4
20260906024528 30 200 0.0 6.4 0.00 0.00 0.00 71 1013.4
20260906024014 30 192 0.0 9.7 0.00 0.00 0.00 71 1013.3
20260906023503 30 188 0.0 9.7 0.00 0.00 0.00 71 1013.2
20260906023008 30 201 0.0 6.4 0.00 0.00 0.00 70 1013.1
20260906022505 30 193 0.0 6.4 0.00 0.00 0.00 70 1013.1
20260906022004 30 166 0.0 9.7 0.00 0.00 0.00 70 1013.1
20260906021511 30 165 0.0 11.3 0.00 0.00 0.00 70 1012.9
20260906021003 30 202 1.6 11.3 0.00 0.00 0.00 69 1012.9
20260906020506 30 190 0.0 6.4 0.00 0.00 0.00 69 1012.9
20260906020018 30 196 0.0 4.8 0.00 0.00 0.00 68 1012.8
20260906015507 30 190 0.0 11.3 0.00 0.00 0.00 68 1012.7
20260906015011 30 206 1.6 12.9 0.00 0.00 0.00 68 1012.7
20260906014525 31 169 0.0 12.9 0.00 0.00 0.00 67 1012.7
20260906014014 31 155 1.6 9.7 0.00 0.00 0.00 67 1012.6
20260906013510 31 199 0.0 19.3 0.00 0.00 0.00 66 1012.5
20260906013026 31 180 0.0 19.3 0.00 0.00 0.00 66 1012.4
20260906012503 31 167 6.4 19.3 0.00 0.00 0.00 66 1012.3
20260906012002 31 171 3.2 17.7 0.00 0.00 0.00 65 1012.2
20260906011510 31 182 6.4 16.1 0.00 0.00 0.00 64 1012.1
20260906011003 31 167 3.2 16.1 0.00 0.00 0.00 64 1012.0
20260906010503 31 180 3.2 14.5 0.00 0.00 0.00 63 1012.0
20260906010013 32 144 3.2 19.3 0.00 0.00 0.00 62 1011.9
20260906005509 32 169 8.0 22.5 0.00 0.00 0.00 61 1011.9
20260906005008 32 138 8.0 22.5 0.00 0.00 0.00 60 1011.8
20260906004519 33 171 4.8 19.3 0.00 0.00 0.00 59 1011.9
20260906004009 33 167 8.0 24.1 0.00 0.00 0.00 58 1011.8
20260906003512 33 216 9.7 24.1 0.00 0.00 0.00 55 1011.8
20260906003024 34 130 3.2 22.5 0.00 0.00 0.00 55 1011.8
20260906002511 35 147 6.4 22.5 0.00 0.00 0.00 53 1011.8
20260906002011 35 150 8.0 19.3 0.00 0.00 0.00 54 1011.7
20260906001538 35 158 6.4 16.1 0.00 0.00 0.00 53 1011.7
20260906001005 36 192 4.8 22.5 0.00 0.00 0.00 52 1011.6
20260906000503 36 152 8.0 22.5 0.00 0.00 0.00 50 1011.5
20260906000013 36 108 9.7 20.9 0.00 0.00 0.00 49 1011.5
20260905235506 37 166 3.2 9.7 0.00 0.00 0.00 47 1011.4
20260905235009 37 165 0.0 8.0 0.00 0.00 0.00 45 1011.4
20260905234514 37 163 1.6 8.0 0.00 0.00 0.00 45 1011.2
20260905234007 37 178 0.0 6.4 0.00 0.00 0.00 44 1011.2
20260905233510 37 178 0.0 8.0 0.00 0.00 0.00 43 1011.1
20260905233021 38 193 1.6 8.0 0.00 0.00 0.00 44 1011.1
20260905232509 38 208 0.0 4.8 0.00 0.00 0.00 43 1011.1
20260905232013 38 208 0.0 4.8 0.00 0.00 0.00 43 1011.1
20260905231534 38 211 0.0 4.8 0.00 0.00 0.00 42 1011.2
20260905231016 38 215 0.0 6.4 0.00 0.00 0.00 43 1011.2
20260905230512 38 216 0.0 6.4 0.00 0.00 0.00 44 1011.2
20260905230027 38 196 1.6 4.8 0.00 0.00 0.00 43 1011.2
20260905225502 38 190 0.0 4.8 0.00 0.00 0.00 43 1011.2
20260905225004 38 209 0.0 4.8 0.00 0.00 0.00 43 1011.2
20260905224513 38 209 0.0 4.8 0.00 0.00 0.00 43 1011.2
20260905224010 37 203 0.0 4.8 0.00 0.00 0.00 44 1011.2
20260905223508 37 205 0.0 8.0 0.00 0.00 0.00 45 1011.1
20260905223018 37 208 1.6 8.0 0.00 0.00 0.00 45 1011.1
20260905222508 37 157 0.0 6.4 0.00 0.00 0.00 46 1011.1
20260905222009 37 143 0.0 8.0 0.00 0.00 0.00 45 1011.2
20260905221523 37 142 3.2 8.0 0.00 0.00 0.00 45 1011.1
20260905221011 37 153 1.6 4.8 0.00 0.00 0.00 45 1011.2
20260905220515 37 153 0.0 8.0 0.00 0.00 0.00 45 1011.2
20260905220031 37 153 0.0 9.7 0.00 0.00 0.00 44 1011.3
20260905215512 37 164 1.6 9.7 0.00 0.00 0.00 45 1011.4
20260905215013 37 163 0.0 9.7 0.00 0.00 0.00 46 1011.4
20260905214529 37 163 1.6 12.9 0.00 0.00 0.00 46 1011.5
20260905214013 37 190 1.6 14.5 0.00 0.00 0.00 47 1011.4
20260905213506 37 163 3.2 14.5 0.00 0.00 0.00 47 1011.5
20260905213015 37 177 1.6 14.5 0.00 0.00 0.00 47 1011.6
20260905212508 37 135 4.8 14.5 0.00 0.00 0.00 46 1011.6
20260905212007 37 136 0.0 11.3 0.00 0.00 0.00 47 1011.6
20260905211520 37 116 1.6 19.3 0.00 0.00 0.00 46 1011.7
20260905211010 37 120 6.4 19.3 0.00 0.00 0.00 46 1011.7
20260905210510 37 144 1.6 12.9 0.00 0.00 0.00 45 1011.8
20260905210026 38 132 6.4 14.5 0.00 0.00 0.00 44 1011.8
20260905205512 38 164 3.2 14.5 0.00 0.00 0.00 44 1011.9
20260905205012 37 221 0.0 9.7 0.00 0.00 0.00 45 1012.0
20260905204526 37 155 0.0 11.3 0.00 0.00 0.00 46 1012.1
20260905204013 37 122 3.2 12.9 0.00 0.00 0.00 46 1012.2
20260905203515 37 121 3.2 12.9 0.00 0.00 0.00 46 1012.2
20260905203032 37 104 1.6 12.9 0.00 0.00 0.00 47 1012.3
20260905202508 37 183 0.0 16.1 0.00 0.00 0.00 47 1012.3
20260905202004 37 130 3.2 16.1 0.00 0.00 0.00 47 1012.5
20260905201516 37 145 1.6 16.1 0.00 0.00 0.00 48 1012.5
20260905201007 36 105 4.8 12.9 0.00 0.00 0.00 48 1012.6
20260905200508 36 123 1.6 17.7 0.00 0.00 0.00 49 1012.7
20260905200023 36 113 9.7 17.7 0.00 0.00 0.00 48 1012.8
20260905195509 36 121 3.2 11.3 0.00 0.00 0.00 48 1012.8
20260905195011 37 93 4.8 11.3 0.00 0.00 0.00 46 1012.9
20260905194525 38 182 1.6 9.7 0.00 0.00 0.00 46 1013.1
20260905194011 37 182 0.0 9.7 0.00 0.00 0.00 48 1013.1
20260905193503 37 190 0.0 8.0 0.00 0.00 0.00 48 1013.2
20260905193004 37 190 0.0 8.0 0.00 0.00 0.00 47 1013.3
20260905192508 37 228 0.0 8.0 0.00 0.00 0.00 47 1013.4
20260905192006 37 194 0.0 8.0 0.00 0.00 0.00 47 1013.5
20260905191510 37 195 0.0 8.0 0.00 0.00 0.00 48 1013.5
20260905191004 37 217 1.6 8.0 0.00 0.00 0.00 48 1013.6
20260905190508 36 206 0.0 8.0 0.00 0.00 0.00 49 1013.7
20260905190027 36 248 0.0 12.9 0.00 0.00 0.00 49 1013.7
20260905185507 36 205 0.0 12.9 0.00 0.00 0.00 49 1013.8
20260905185013 36 161 3.2 9.7 0.00 0.00 0.00 50 1013.9
20260905184525 36 170 0.0 9.7 0.00 0.00 0.00 52 1014.0
20260905184012 36 187 1.6 14.5 0.00 0.00 0.00 50 1014.1
20260905183509 36 132 4.8 14.5 0.00 0.00 0.00 50 1014.2
20260905183025 36 134 3.2 14.5 0.00 0.00 0.00 50 1014.4
20260905182512 36 166 1.6 14.5 0.00 0.00 0.00 50 1014.4
20260905182004 36 117 6.4 14.5 0.00 0.00 0.00 51 1014.5
20260905181510 36 157 0.0 8.0 0.00 0.00 0.00 50 1014.6
20260905181009 36 198 0.0 8.0 0.00 0.00 0.00 49 1014.6
20260905180504 36 198 0.0 8.0 0.00 0.00 0.00 49 1014.7
20260905180012 36 226 0.0 11.3 0.00 0.00 0.00 50 1014.9
20260905175507 36 231 0.0 11.3 0.00 0.00 0.00 49 1014.9
20260905175008 36 229 0.0 9.7 0.00 0.00 0.00 49 1015.0
20260905174521 36 185 0.0 9.7 0.00 0.00 0.00 51 1015.0
20260905174010 35 245 0.0 9.7 0.00 0.00 0.00 51 1015.1
20260905173510 35 164 1.6 17.7 0.00 0.00 0.00 49 1015.2
20260905173026 35 234 1.6 17.7 0.00 0.00 0.00 51 1015.2
20260905172514 35 140 0.0 14.5 0.00 0.00 0.00 50 1015.2
20260905172014 35 159 3.2 14.5 0.00 0.00 0.00 50 1015.3
20260905171540 34 164 0.0 12.9 0.00 0.00 0.00 53 1015.3
20260905171013 34 98 1.6 12.9 0.00 0.00 0.00 53 1015.3
20260905170504 34 117 4.8 14.5 0.00 0.00 0.00 54 1015.4
20260905170012 35 126 6.4 14.5 0.00 0.00 0.00 53 1015.5
20260905165505 35 128 4.8 14.5 0.00 0.00 0.00 52 1015.5
20260905165007 35 180 0.0 11.3 0.00 0.00 0.00 54 1015.4
20260905164517 35 144 3.2 11.3 0.00 0.00 0.00 54 1015.5
20260905164008 35 161 3.2 12.9 0.00 0.00 0.00 55 1015.5
20260905163510 35 163 0.0 12.9 0.00 0.00 0.00 56 1015.6
20260905163023 35 143 0.0 11.3 0.00 0.00 0.00 56 1015.6
20260905162510 35 148 1.6 11.3 0.00 0.00 0.00 56 1015.5
20260905162013 35 159 0.0 9.7 0.00 0.00 0.00 57 1015.5
20260905161528 35 162 0.0 12.9 0.00 0.00 0.00 58 1015.5
20260905161011 34 185 1.6 12.9 0.00 0.00 0.00 59 1015.4
20260905160515 34 155 3.2 12.9 0.00 0.00 0.00 60 1015.5
20260905160046 33 113 0.0 12.9 0.00 0.00 0.00 61 1015.5
20260905155514 33 151 0.0 9.7 0.00 0.00 0.00 62 1015.5
20260905155002 33 84 0.0 6.4 0.00 0.00 0.00 60 1015.5
20260905154512 33 282 0.0 9.7 0.00 0.00 0.00 60 1015.5
20260905154006 33 281 1.6 11.3 0.00 0.00 0.00 60 1015.5
20260905153506 33 254 0.0 11.3 0.00 0.00 0.00 61 1015.5
20260905153022 33 252 0.0 8.0 0.00 0.00 0.00 62 1015.5
20260905152511 32 252 3.2 12.9 0.00 0.00 0.00 63 1015.5
20260905152016 32 252 3.2 12.9 0.00 0.00 0.00 63 1015.5
20260905151525 32 247 0.0 11.3 0.00 0.00 0.00 65 1015.5
20260905151011 31 245 0.0 11.3 0.00 0.00 0.00 65 1015.4
20260905150512 31 225 0.0 11.3 0.00 0.00 0.00 66 1015.4
20260905150028 31 221 1.6 11.3 0.00 0.00 0.00 66 1015.4
20260905145519 32 263 1.6 9.7 0.00 0.00 0.00 65 1015.3
20260905145014 32 253 1.6 8.0 0.00 0.00 0.00 65 1015.3
20260905144532 31 230 0.0 11.3 0.00 0.00 0.00 67 1015.3
20260905144018 31 236 0.0 11.3 0.00 0.00 0.00 67 1015.2
20260905143504 31 246 0.0 11.3 0.00 0.00 0.00 68 1015.2
20260905143015 31 245 1.6 11.3 0.00 0.00 0.00 67 1015.2
20260905142508 31 248 0.0 11.3 0.00 0.00 0.00 68 1015.2
20260905142010 31 242 3.2 11.3 0.00 0.00 0.00 66 1015.3
20260905141520 32 234 0.0 8.0 0.00 0.00 0.00 65 1015.3
20260905141011 32 233 3.2 8.0 0.00 0.00 0.00 64 1015.3
20260905140514 32 212 0.0 0.0 0.00 0.00 0.00 65 1015.3
20260905140028 32 211 0.0 0.0 0.00 0.00 0.00 65 1015.4
20260905135513 32 211 0.0 0.0 0.00 0.00 0.00 67 1015.3
20260905135012 31 211 0.0 0.0 0.00 0.00 0.00 67 1015.2
20260905134530 31 211 0.0 0.0 0.00 0.00 0.00 68 1015.1
20260905134014 31 211 0.0 0.0 0.00 0.00 0.00 69 1015.0
20260905133515 31 211 0.0 0.0 0.00 0.00 0.00 70 1014.9
20260905133030 30 211 0.0 0.0 0.00 0.00 0.00 72 1015.0
20260905132514 30 211 0.0 0.0 0.00 0.00 0.00 74 1014.9
20260905132008 28 211 0.0 0.0 0.00 0.00 0.00 76 1015.0
20260905131518 28 211 0.0 3.2 0.00 0.00 0.00 78 1015.0
20260905131008 27 211 0.0 3.2 0.00 0.00 0.00 79 1014.9
20260905130512 27 211 0.0 1.6 0.00 0.00 0.00 82 1014.9
20260905130025 26 211 0.0 0.0 0.00 0.00 0.00 83 1014.8
20260905125512 26 211 0.0 0.0 0.00 0.00 0.00 83 1014.8
20260905125012 26 211 0.0 1.6 0.00 0.00 0.00 82 1014.6
20260905124526 26 211 0.0 3.2 0.00 0.00 0.00 82 1014.5
20260905124014 26 211 0.0 3.2 0.00 0.00 0.00 82 1014.4
20260905123513 25 211 0.0 4.8 0.00 0.00 0.00 82 1014.4
20260905123028 25 211 0.0 4.8 0.00 0.00 0.00 83 1014.3
20260905122518 25 212 0.0 1.6 0.00 0.00 0.00 83 1014.4
20260905122020 25 212 0.0 0.0 0.00 0.00 0.00 83 1014.5
20260905121531 25 212 0.0 0.0 0.00 0.00 0.00 83 1014.5
20260905121019 25 212 0.0 0.0 0.00 0.00 0.00 83 1014.5
20260905120508 25 212 0.0 0.0 0.00 0.00 0.00 83 1014.5
20260905120034 25 212 0.0 0.0 0.00 0.00 0.00 83 1014.5
20260905115511 25 212 0.0 0.0 0.00 0.00 0.00 83 1014.5
20260905115012 25 212 0.0 0.0 0.00 0.00 0.00 83 1014.5
20260905114527 25 212 0.0 0.0 0.00 0.00 0.00 83 1014.4